Theta_e
308 307 306 307 305 305 303 305 306 306 307 308 307 306 306 306 305 305 307 308 308 308 309 309 310 311 313 316 318 318 317 315 314 310 308 306 303 301 305 303 302 303 305 307
307 307 305 304 306 304 306 306 306 306 306 306 305 306 306 305 306 306 306 306 306 308 308 310 310 311 313 315 318 317 316 314 311 309 307 304 302 301 306 303 302 303 306 308
306 305 305 305 305 305 305 305 306 306 306 305 304 305 307 308 308 307 306 306 308 309 310 311 312 313 314 315 316 315 314 312 310 307 305 303 301 303 305 303 303 303 306 308
306 305 305 305 305 305 305 304 306 307 306 305 305 307 307 307 308 306 306 307 309 311 312 312 312 312 314 315 315 314 311 310 307 306 304 302 301 305 305 303 303 303 306 308
305 306 305 306 306 305 306 305 305 306 305 306 306 306 306 306 310 308 305 306 307 310 311 311 312 312 314 314 313 310 310 308 307 304 303 301 301 305 305 303 303 304 307 309
305 306 305 304 305 304 306 307 306 304 305 303 305 306 305 306 308 308 306 306 307 307 308 310 311 312 312 312 310 309 308 307 306 304 303 301 302 306 305 304 304 305 307 309
306 306 305 305 306 307 306 306 303 304 300 306 304 304 304 307 308 307 306 307 307 307 308 308 310 310 310 310 309 308 307 307 305 304 303 300 302 306 305 305 305 305 306 308
307 305 305 304 305 307 305 306 308 307 305 306 304 307 307 305 305 306 306 307 307 307 308 309 309 309 309 309 309 308 307 307 305 304 303 300 302 305 305 305 306 306 306 307
306 307 304 305 305 307 308 308 305 305 296 307 307 306 306 304 304 304 305 305 306 307 308 308 309 309 309 309 308 308 307 306 305 305 304 301 301 304 306 305 306 306 306 307
307 308 303 304 304 305 305 304 306 304 304 308 307 308 310 305 304 302 303 305 306 306 307 308 308 308 309 309 308 308 307 306 305 305 305 302 301 304 306 306 306 306 306 307
310 310 305 304 305 306 305 305 305 306 307 309 307 310 305 306 303 302 301 304 304 306 306 307 308 308 308 308 308 307 307 306 305 305 305 304 301 303 306 306 306 306 307 307
311 309 306 305 304 303 304 306 306 309 305 305 308 311 305 304 302 304 305 307 306 305 305 306 306 307 307 307 307 307 307 307 306 305 305 304 302 302 305 306 306 306 307 307
311 311 310 310 308 304 304 304 305 307 306 306 311 310 304 303 303 305 306 307 306 306 305 304 305 306 307 307 307 307 307 306 306 305 305 304 304 301 303 306 307 307 307 308
311 309 314 316 313 307 304 304 304 309 310 308 308 307 306 304 304 304 305 306 307 307 307 306 305 305 305 305 306 306 306 306 306 305 305 305 304 302 302 305 307 307 308 308
310 313 312 303 304 305 307 306 307 308 308 311 309 306 307 305 304 304 306 306 307 307 307 307 307 307 306 305 305 305 305 304 304 305 305 304 303 303 301 303 306 307 308 309
307 306 308 309 303 305 306 307 307 307 306 307 301 303 305 307 306 305 306 307 307 307 307 307 306 306 307 307 307 307 305 305 304 304 304 304 303 303 301 302 305 307 307 310
309 304 308 311 304 307 309 308 305 306 304 307 309 308 304 304 305 304 306 308 308 308 307 306 306 306 306 306 307 307 307 306 304 304 304 304 303 302 301 301 304 306 307 308
309 306 309 305 306 311 310 303 307 307 306 305 306 306 306 306 306 306 307 308 308 308 308 308 306 306 306 307 307 307 307 307 306 304 303 303 303 302 301 301 303 305 307 308
308 307 304 307 308 308 305 303 303 306 307 305 306 305 303 304 306 305 308 308 309 308 309 309 308 306 305 306 306 306 305 305 305 303 303 302 302 302 302 301 302 305 306 308
307 308 308 301 309 312 308 304 303 304 306 304 305 304 304 306 307 304 306 308 307 307 307 308 308 308 307 307 305 305 304 303 303 302 302 301 302 302 301 301 302 305 306 308
308 309 308 303 303 301 301 301 304 306 308 303 305 305 305 307 306 307 306 306 306 305 304 304 304 305 305 306 307 307 305 304 303 302 301 301 301 301 301 300 302 306 308 308
307 308 309 301 300 306 300 302 305 304 304 304 305 305 306 306 307 307 305 305 304 302 302 301 301 301 301 301 302 303 304 306 305 303 301 301 301 301 301 301 301 305 308 309
304 304 305 307 307 302 303 304 305 306 306 304 305 305 306 306 306 305 304 304 301 299 298 298 298 298 298 298 298 299 300 302 303 306 305 302 300 301 301 301 301 305 308 309
302 300 302 304 303 302 303 304 306 307 307 306 305 305 306 305 304 302 302 300 298 297 297 297 297 297 297 296 297 297 297 297 298 301 303 306 304 301 300 300 300 302 308 309
298 300 297 299 301 301 303 305 307 307 307 306 305 305 306 306 301 301 299 297 297 296 296 296 296 297 297 297 296 296 296 296 296 297 297 300 304 306 302 300 300 300 303 309
296 303 305 305 301 303 304 305 307 307 307 306 305 303 303 306 301 299 297 297 296 295 296 296 296 297 297 297 298 298 297 296 296 296 296 296 297 302 305 304 301 300 299 302
Wind_Speed
5 3 9 18 4 2 3 3 4 3 1 1 6 9 14 20 12 20 25 23 17 13 13 16 15 15 15 15 16 15 13 12 10 8 9 8 8 7 4 3 2 3 4 2
3 10 10 5 5 4 2 0 4 3 1 2 5 14 11 8 4 5 12 5 10 11 14 17 17 16 15 15 16 15 13 10 9 9 9 8 8 6 4 2 1 2 2 2
7 4 10 8 4 7 5 5 4 3 2 1 6 8 4 1 2 5 8 7 9 14 18 19 18 16 16 15 16 14 12 11 10 9 8 7 7 6 3 3 2 1 1 2
6 4 5 5 8 7 5 8 6 2 2 4 2 5 5 1 2 2 3 7 10 14 16 18 18 17 16 15 15 13 12 11 10 9 8 6 6 5 3 3 3 1 1 2
9 8 6 5 6 8 5 4 6 2 3 2 2 1 7 3 4 5 6 9 11 13 14 16 16 15 16 15 14 13 13 12 10 8 7 6 5 5 4 3 3 2 2 3
5 1 3 7 2 7 9 7 7 5 3 2 6 6 6 5 4 3 4 10 11 14 15 14 15 16 17 16 15 13 12 11 9 8 7 6 4 5 4 3 3 3 2 3
1 3 1 3 6 3 4 6 3 3 2 6 3 2 8 3 3 2 6 11 12 12 14 16 18 19 19 17 15 14 12 10 8 8 6 6 5 5 4 4 4 5 3 2
8 4 9 5 6 9 6 7 6 8 4 3 3 7 6 4 1 3 3 9 12 13 14 15 16 17 17 16 15 14 12 11 9 8 7 6 5 6 5 5 5 5 3 3
6 6 2 1 2 5 6 6 5 7 2 3 4 6 8 3 2 3 4 10 11 12 14 14 15 16 16 16 14 13 12 11 9 9 7 7 5 6 6 6 5 5 4 4
6 2 1 0 1 1 3 7 3 2 4 4 4 5 5 6 8 5 5 8 9 10 13 15 15 16 16 15 13 14 13 12 10 10 8 7 6 7 7 6 5 5 5 5
4 2 1 3 7 9 3 3 3 5 5 6 3 6 6 8 9 9 7 7 7 11 11 13 14 14 14 15 16 15 15 14 13 11 9 8 6 8 8 8 6 6 6 5
5 4 4 6 3 3 2 5 6 5 5 2 3 6 3 6 8 12 12 10 8 8 10 11 12 13 15 16 17 16 15 16 13 12 11 10 8 8 9 9 8 7 7 6
15 5 4 4 5 1 5 5 3 4 3 7 6 5 4 5 7 11 14 11 10 9 8 9 11 13 14 15 16 17 17 15 15 15 14 12 10 9 10 11 10 9 8 7
26 4 6 9 3 9 6 7 7 4 4 6 7 5 5 7 8 9 13 14 12 10 9 8 9 10 12 14 16 18 18 17 17 18 17 14 12 10 10 12 12 11 10 9
14 10 14 4 2 3 6 16 16 12 13 12 9 9 11 15 14 18 19 16 13 10 8 7 7 7 9 11 14 17 18 19 19 19 19 16 14 13 12 13 14 13 11 10
5 3 4 9 2 2 3 10 18 22 12 7 4 5 5 14 13 17 19 18 13 9 6 4 4 5 8 10 13 14 16 18 20 20 19 17 17 15 13 13 15 15 12 12
9 5 4 3 4 6 5 19 15 16 8 15 16 9 6 5 13 21 22 18 14 10 6 4 3 3 5 8 11 14 16 17 19 18 17 18 18 16 14 13 15 15 13 13
15 7 2 3 5 5 5 3 17 21 16 14 4 8 14 12 22 26 22 20 17 13 10 7 4 1 1 3 6 9 13 15 15 16 16 16 16 15 14 13 13 15 14 12
12 7 4 5 4 5 4 6 9 13 16 18 18 8 7 24 20 9 19 19 18 15 12 11 9 8 6 3 1 1 5 9 12 14 15 16 15 15 14 12 12 14 14 12
12 7 5 3 5 8 6 5 12 4 5 15 23 15 15 22 9 5 24 22 21 18 16 15 14 13 13 14 12 7 5 2 7 11 14 15 14 15 14 13 12 14 13 11
7 5 8 6 4 8 6 7 17 6 7 11 32 29 30 12 5 27 30 27 24 23 21 20 19 18 19 19 17 17 15 9 4 4 9 11 13 13 13 13 13 12 9 9
9 8 5 4 2 7 10 9 14 6 4 17 27 32 33 18 26 40 35 33 30 28 25 22 20 20 19 18 16 17 18 19 16 8 1 7 10 12 13 13 11 13 10 9
4 7 8 11 8 2 24 1 11 11 14 16 31 31 39 33 40 43 39 36 32 29 27 24 21 20 19 17 16 15 18 17 16 15 12 4 5 10 12 12 12 13 12 11
1 3 5 5 6 4 21 6 10 11 12 16 26 37 40 41 48 45 43 39 35 30 27 23 20 17 17 15 14 14 14 14 13 13 12 12 8 3 8 12 12 13 15 14
5 9 7 1 1 4 12 16 17 15 15 19 25 36 41 47 48 49 44 40 36 31 26 21 17 14 13 12 11 11 12 11 10 10 10 10 8 7 4 8 12 14 15 17
5 11 10 8 11 5 15 24 21 21 22 23 33 36 40 48 51 48 44 38 34 30 24 19 15 11 10 9 10 12 13 13 12 11 10 9 8 7 6 6 8 12 15 17
Wind_Direction
177 154 204 206 165 104 147 196 225 226 167 241 239 268 279 283 268 279 284 276 259 238 221 210 199 196 194 197 201 207 216 217 225 233 246 261 282 295 297 319 327 20 0 359
104 229 213 166 185 240 28 189 256 279 252 202 323 289 262 269 251 291 295 274 202 191 177 179 184 186 193 199 196 204 207 217 216 225 242 266 283 283 279 275 288 360 357 40
182 215 173 169 157 181 220 195 215 216 346 290 328 293 330 53 97 26 56 128 159 170 168 170 175 182 189 195 196 200 207 207 213 224 242 264 279 265 255 253 270 314 27 79
250 221 141 167 205 155 222 200 177 199 90 232 24 275 301 324 265 46 108 134 150 165 170 174 178 185 191 189 193 200 201 202 210 226 243 265 273 265 254 253 253 243 120 124
227 182 162 174 206 156 224 127 148 110 106 9 263 76 271 323 240 198 203 183 175 178 183 184 184 188 188 194 198 196 195 200 210 228 248 265 264 256 260 250 244 248 148 137
223 226 200 194 105 157 154 85 52 57 72 333 218 165 272 203 208 158 177 196 191 189 188 191 187 189 192 194 197 196 195 203 216 233 252 265 247 245 254 258 250 253 200 147
144 211 257 164 93 57 106 102 22 357 7 223 18 153 248 235 205 194 188 193 190 189 193 195 195 194 197 198 195 195 199 207 222 237 252 263 249 238 240 248 257 258 228 176
169 236 168 182 193 172 184 163 158 194 194 223 114 224 248 210 239 202 223 189 182 188 195 201 204 204 202 202 200 200 202 211 221 238 251 258 249 233 236 237 245 253 238 201
157 236 344 76 151 150 185 197 150 106 45 68 211 280 289 184 159 147 165 166 179 191 197 199 204 206 206 208 207 208 210 216 221 231 245 257 253 236 230 244 249 249 239 210
198 120 314 351 146 4 162 157 92 351 136 228 267 276 238 215 203 172 165 186 192 198 201 201 204 205 208 213 215 218 216 220 226 230 237 246 248 238 230 233 242 236 225 221
121 89 305 153 215 171 153 190 192 131 158 168 172 250 216 206 181 177 175 168 188 199 199 205 207 205 209 217 221 224 222 224 227 231 234 242 246 243 231 234 229 219 219 221
127 97 175 201 293 319 303 207 174 153 226 232 155 262 327 200 166 157 159 156 151 157 188 198 202 209 210 217 223 228 228 228 230 231 236 238 239 242 233 230 230 223 226 224
162 187 128 93 335 105 228 210 198 110 91 196 153 250 12 107 136 161 157 160 153 143 151 174 192 204 208 215 221 227 232 232 233 234 236 240 242 242 239 230 230 228 230 229
160 121 196 209 197 143 204 193 201 170 176 167 219 153 211 188 175 181 170 162 159 158 155 160 172 194 210 221 228 232 235 236 233 234 234 236 240 241 240 234 229 231 233 232
175 187 189 177 208 224 216 194 193 206 210 198 196 183 201 196 192 185 172 165 164 164 160 167 186 198 214 224 233 238 238 238 239 239 236 234 236 235 237 237 229 229 232 234
175 157 149 191 97 12 257 222 202 209 203 237 113 244 208 193 168 173 174 170 170 165 165 181 211 229 233 234 238 239 239 239 239 238 236 231 232 234 236 238 234 230 235 237
156 133 135 196 141 123 281 227 204 216 205 202 211 197 155 156 181 185 176 177 172 166 165 175 212 249 258 253 249 246 243 239 234 232 228 225 227 231 232 235 237 235 235 247
161 138 99 138 137 203 246 313 203 207 210 204 120 166 180 188 184 183 181 174 167 164 159 150 130 111 290 279 276 263 250 244 235 223 221 222 225 229 231 233 234 238 240 247
169 132 130 159 189 301 249 193 161 174 227 205 203 157 127 130 128 142 177 177 166 160 153 142 124 105 92 89 54 306 241 227 216 211 215 217 215 217 226 234 236 239 244 250
167 139 118 163 158 198 229 202 160 152 268 195 195 163 153 148 161 198 170 166 156 149 142 134 122 107 93 80 68 60 66 144 192 202 209 215 219 218 217 219 222 236 246 251
164 192 163 161 205 274 241 152 150 136 238 173 179 170 163 178 181 164 162 159 154 145 136 128 120 112 98 87 80 77 73 73 95 197 214 217 218 218 222 223 223 222 242 244
161 156 166 107 144 262 155 130 173 194 124 169 175 173 169 157 150 158 160 156 153 145 138 131 123 110 98 88 78 74 69 65 62 63 169 215 215 218 220 230 230 229 223 228
133 179 170 185 206 84 183 38 187 168 155 168 175 175 170 157 158 158 156 155 151 145 137 130 120 110 100 88 77 68 62 55 51 49 50 41 233 225 226 235 241 227 222 226
84 139 147 112 211 213 192 162 174 173 168 172 182 178 174 159 159 157 154 153 150 145 138 130 122 113 101 88 74 63 56 46 38 33 33 33 26 305 244 241 239 234 231 225
191 143 148 240 288 96 188 190 171 159 156 159 173 175 170 163 160 157 155 154 150 145 138 129 120 109 94 78 61 47 36 26 17 13 12 10 11 12 328 264 248 247 237 233
194 173 179 207 169 161 186 181 176 168 162 167 165 164 166 166 160 158 154 154 151 145 139 133 123 107 89 67 39 20 5 355 348 344 338 334 338 341 341 324 271 255 248 240